GFSNIL_sfc_wetblb_000.txt.gz
Wetbulb
64.33 63.21 62.11 64.98 63.77 63.65 64.17 62.51 63.91 63.61 65.94 65.35 66.21 66.12 67.48 67.30 67.29 67.55 64.76 62.87 63.33 64.19
63.72 64.04 63.40 67.14 66.76 64.01 63.75 64.49 65.03 64.94 63.94 65.95 66.14 65.65 67.16 68.41 67.17 66.48 63.86 62.76 62.94 62.48
63.22 63.64 64.82 66.31 65.88 65.31 65.05 62.66 61.88 64.58 65.61 65.91 66.54 67.09 67.13 67.22 66.66 65.46 64.50 63.62 63.80 61.65
62.20 63.42 64.25 64.15 64.67 64.91 63.31 64.08 62.78 60.89 61.73 62.79 65.11 65.11 67.30 66.73 64.44 63.96 63.14 64.20 62.41 61.51
62.14 63.22 63.41 63.91 64.68 65.76 65.59 64.85 63.24 62.80 62.01 61.87 62.06 63.63 65.51 65.97 65.36 65.22 64.08 64.35 64.57 61.77
61.83 62.69 63.16 63.92 63.78 64.26 64.02 65.15 65.79 63.58 62.38 61.92 61.53 62.34 63.85 64.98 65.78 66.19 66.32 66.26 65.86 64.91
61.92 62.35 62.99 63.98 64.13 63.48 63.29 63.66 64.55 64.89 64.33 64.46 63.50 62.49 64.55 66.24 66.18 66.24 66.22 66.11 66.43 66.24
62.09 61.99 62.44 62.79 63.80 64.11 63.33 62.79 62.39 62.76 62.78 63.36 62.92 62.38 63.54 64.00 64.44 64.22 64.09 64.73 64.85 65.37
59.96 61.07 61.85 62.66 63.76 63.60 62.97 62.39 62.43 62.20 61.72 62.18 60.04 47.03 51.64 61.00 62.97 63.03 62.83 62.60 61.73 60.30
58.94 59.74 61.07 61.49 61.87 63.06 63.41 64.11 62.58 62.14 61.97 62.32 60.16 44.83 47.18 53.15 64.78 64.18 63.97 64.04 63.62 61.50
58.08 58.47 60.45 60.91 61.57 63.28 64.22 64.01 63.68 63.16 62.77 62.29 57.39 43.81 44.80 50.88 63.49 63.75 63.36 63.75 63.46 62.87
58.53 58.24 59.65 60.08 61.41 62.99 63.40 63.63 63.33 62.85 62.75 61.97 59.69 42.92 42.57 50.26 61.05 60.68 60.25 59.74 59.78 60.24
59.51 58.92 59.26 60.43 61.80 62.78 62.67 61.90 60.97 61.31 62.26 56.40 61.38 41.86 41.12 48.28 56.43 57.95 56.28 56.92 56.37 44.51
60.84 59.73 60.81 62.01 62.35 62.02 61.47 60.75 60.82 60.19 61.28 61.11 59.75 56.64 40.40 40.88 56.78 55.64 54.27 53.65 54.03 52.40

GFSNIL_sfc_wetblb_003.txt.gz
Wetbulb
65.73 65.61 67.05 64.56 64.36 62.64 63.69 63.53 65.63 65.68 65.95 66.04 66.57 67.39 68.13 68.50 67.98 68.16 65.73 65.60 64.40 64.45
65.48 66.64 65.95 66.07 66.37 65.46 65.36 64.89 65.69 65.68 65.97 66.18 66.26 66.86 67.43 67.56 66.21 66.73 66.74 66.33 63.39 63.43
64.84 66.20 66.41 65.99 65.70 65.57 63.69 65.24 64.48 65.67 65.89 65.94 66.11 66.49 67.53 67.79 66.31 64.89 64.62 65.06 62.43 61.36
64.46 65.31 65.42 65.78 66.09 64.38 64.99 63.49 65.56 65.65 65.70 65.29 65.80 66.91 67.77 67.68 66.00 64.55 63.61 63.08 61.38 60.99
64.33 65.00 65.46 65.70 66.76 66.01 65.63 62.87 62.92 64.94 65.22 65.29 65.57 66.26 66.45 65.87 65.55 63.93 62.89 61.89 62.12 60.93
63.65 64.31 64.74 65.35 64.98 66.79 66.53 64.18 63.25 63.64 63.06 65.01 65.86 65.90 66.54 65.94 65.39 65.52 65.25 63.57 62.05 63.17
62.99 63.99 65.04 64.78 64.61 65.48 66.35 66.14 65.04 63.90 63.63 63.58 64.88 66.47 66.65 66.44 66.81 66.47 64.84 64.33 65.26 64.96
62.75 63.57 65.33 64.39 64.45 64.60 64.70 64.82 65.22 65.08 64.69 64.33 64.02 64.72 65.78 66.76 67.07 66.20 65.80 66.04 65.27 66.49
61.68 62.26 63.59 64.33 64.12 63.98 63.15 62.86 63.11 63.23 62.75 63.11 59.86 48.42 53.95 63.11 65.83 65.64 65.13 63.25 63.17 62.60
61.10 61.06 62.23 62.95 62.41 62.51 63.71 64.41 63.37 62.88 62.99 61.69 60.07 47.18 49.71 56.35 65.90 65.63 66.00 65.64 64.44 61.64
59.52 60.84 61.78 61.97 62.48 64.22 64.76 64.49 63.78 62.54 62.51 62.36 55.06 46.37 49.20 53.87 67.04 66.76 66.09 65.32 65.19 64.70
58.27 59.91 61.16 61.54 63.43 64.95 64.76 65.23 63.66 63.08 62.48 61.94 59.10 44.53 44.58 50.86 64.51 63.29 63.07 62.75 63.23 63.63
58.93 59.68 60.51 62.93 64.26 64.95 64.66 63.90 62.81 62.69 62.96 57.90 61.24 43.16 42.23 48.42 59.45 60.98 59.38 60.53 59.55 47.01
60.36 61.23 63.52 65.24 65.90 64.66 63.46 63.47 63.77 61.92 62.92 62.42 61.65 55.48 41.82 41.74 57.96 57.56 56.33 55.51 55.41 55.34

GFSNIL_sfc_wetblb_006.txt.gz
Wetbulb
65.25 64.14 64.72 63.58 62.79 63.17 64.00 64.19 64.92 65.19 65.56 65.91 65.61 65.24 65.35 64.74 65.07 64.83 64.37 63.43 63.32 62.97
65.58 65.54 65.48 65.56 64.54 62.15 64.90 64.88 64.87 65.27 65.47 65.61 65.47 64.57 64.55 64.37 64.35 65.19 64.08 64.12 63.22 62.57
64.23 66.29 65.95 66.60 65.43 62.84 64.48 65.20 64.17 64.55 64.64 65.07 65.25 65.10 65.39 64.95 64.90 64.37 62.84 63.12 62.59 61.98
66.10 66.27 65.28 64.75 64.70 61.87 63.46 64.50 64.17 63.83 64.84 64.63 64.75 64.24 65.30 64.37 64.06 63.18 62.78 62.31 60.83 60.88
66.18 65.78 65.38 64.67 65.04 62.64 63.32 64.69 64.80 64.86 64.55 64.46 65.21 65.61 64.13 63.60 63.16 62.58 61.79 61.68 60.54 60.18
65.55 64.96 65.73 64.81 64.78 63.16 62.47 63.84 64.88 64.69 64.68 64.49 64.77 64.41 64.13 64.56 63.73 62.82 62.02 61.53 60.44 60.14
65.48 64.86 65.72 65.48 65.48 64.75 64.34 63.10 63.18 64.31 64.69 64.21 64.31 64.73 65.05 64.68 63.71 63.30 62.81 62.03 61.60 60.88
65.21 66.60 65.81 65.18 65.36 64.76 64.58 64.56 64.02 64.58 64.76 64.17 64.80 64.85 64.21 64.59 63.51 63.06 62.68 62.48 62.71 61.68
62.79 64.46 65.37 65.46 64.81 64.16 63.93 64.29 63.76 61.25 61.78 61.14 58.16 50.10 56.26 62.31 63.55 62.88 62.60 62.38 61.71 59.77
61.77 62.25 64.05 64.06 64.23 63.54 64.33 65.14 62.43 61.71 61.20 59.77 56.02 48.41 50.64 56.23 62.74 61.71 62.10 61.33 59.89 59.95
60.34 61.07 62.59 62.77 63.54 64.16 64.49 64.24 63.41 61.68 60.95 58.27 51.89 48.50 49.23 56.98 64.12 63.84 62.95 62.75 61.02 58.70
59.85 60.77 61.31 62.09 63.24 64.69 65.17 64.46 63.73 62.74 61.56 57.89 55.62 46.82 46.83 57.79 62.52 62.94 61.87 61.78 61.54 62.60
58.95 61.17 61.37 63.23 63.95 64.78 65.73 64.65 63.26 62.91 63.05 57.54 56.80 43.58 44.13 50.02 61.28 60.63 59.82 59.29 53.92 48.38
59.84 61.44 62.74 64.64 64.46 64.88 64.44 63.76 64.00 62.63 63.34 62.32 58.77 51.43 43.32 42.60 56.06 58.88 56.87 56.41 56.13 50.75

GFSNIL_sfc_wetblb_009.txt.gz
Wetbulb
59.75 60.49 59.79 58.68 59.56 59.87 59.35 59.53 60.61 60.94 60.84 61.38 61.85 61.81 61.53 60.60 61.48 61.79 61.95 60.75 60.25 61.24
60.85 60.72 60.05 60.07 59.91 59.89 60.27 61.21 61.57 61.51 61.41 61.45 61.91 61.72 61.39 62.64 62.35 62.34 61.59 60.48 60.63 61.10
62.06 61.45 61.49 61.50 61.66 59.62 60.12 60.98 61.50 61.84 61.52 61.79 61.70 62.04 62.80 62.68 61.33 61.15 61.10 61.27 61.67 61.28
61.20 61.12 61.66 61.36 59.95 60.18 60.03 62.06 61.26 61.92 61.99 61.86 62.45 61.84 61.62 61.80 60.99 60.70 60.63 61.07 60.41 60.14
60.96 61.29 61.29 62.09 60.70 60.18 60.56 61.20 61.85 62.30 62.28 62.57 61.65 61.58 61.49 61.48 61.50 60.22 59.32 59.91 59.79 60.62
59.81 60.88 60.50 61.09 59.99 61.34 60.59 60.81 61.59 62.43 61.85 62.55 62.31 61.69 61.68 61.62 60.79 59.88 59.86 59.73 60.32 60.52
59.14 59.57 60.13 60.97 61.28 61.51 61.38 60.56 60.64 61.85 62.67 62.92 63.03 62.43 62.77 62.63 61.67 61.39 60.81 60.22 60.31 60.39
59.47 59.32 59.77 61.01 61.07 61.46 62.00 61.67 61.53 60.97 62.77 63.32 63.25 63.68 62.42 62.43 61.94 61.35 60.73 61.03 61.05 61.28
58.52 60.73 59.86 59.13 60.24 60.46 60.58 61.76 58.83 57.93 58.09 58.20 59.88 53.72 55.66 60.89 62.12 61.51 61.29 60.68 60.77 60.47
57.87 61.43 59.33 58.75 58.27 57.57 58.80 57.35 57.23 56.78 55.91 55.40 53.80 51.27 53.49 56.64 62.60 62.04 60.93 59.39 59.46 60.29
57.63 59.54 59.10 58.31 57.30 57.16 57.75 56.63 55.32 55.18 53.50 50.72 48.74 48.70 51.02 53.95 61.16 60.02 59.47 58.67 58.50 57.81
56.74 57.50 58.16 57.76 56.52 57.30 56.91 56.84 55.24 53.95 52.32 50.91 47.90 47.98 51.04 58.05 58.81 58.58 58.50 58.15 56.10 57.45
56.60 57.01 56.43 58.03 57.58 58.01 57.78 57.53 57.55 55.31 52.19 50.68 48.57 43.62 46.74 55.24 58.14 55.20 53.62 51.47 53.48 51.16
55.96 56.89 56.54 58.90 59.25 58.34 58.82 57.48 56.68 56.32 53.80 52.10 48.64 45.08 42.51 47.06 55.74 55.10 53.37 51.93 49.69 49.75

GFSNIL_sfc_wetblb_012.txt.gz
Wetbulb
57.56 58.59 57.67 57.98 58.21 57.72 57.84 57.65 58.26 58.90 59.25 59.20 60.22 59.93 59.36 59.05 59.62 59.65 59.68 58.62 58.89 59.20
58.48 58.81 58.63 60.16 58.96 58.14 58.61 59.85 59.40 59.48 59.07 60.07 60.42 59.78 59.78 60.31 60.85 60.45 60.27 59.83 59.28 59.24
59.39 59.95 59.31 59.47 57.65 58.60 58.62 59.66 60.01 59.95 59.47 59.67 59.87 60.66 61.36 61.29 60.43 60.96 61.29 61.66 60.42 60.42
59.55 60.25 59.79 58.28 58.46 58.71 58.68 59.46 60.34 60.34 60.47 60.41 60.59 60.76 60.44 59.20 60.14 60.48 60.58 60.99 60.88 60.00
59.80 59.95 59.86 58.85 58.44 59.13 59.10 60.21 60.61 61.06 60.87 61.05 60.33 60.23 60.35 60.25 60.20 59.80 59.51 59.78 60.76 60.58
59.13 59.25 59.44 58.00 58.62 59.49 59.58 60.30 61.33 61.34 60.61 61.05 60.68 59.97 60.01 59.81 59.45 59.28 59.55 59.88 60.51 60.57
58.53 58.91 59.58 59.11 59.02 59.55 60.20 60.82 60.66 61.00 61.90 61.64 60.84 61.25 60.76 59.98 59.12 58.98 59.68 60.22 61.01 60.98
57.36 58.57 59.90 59.80 60.58 60.12 59.95 60.37 61.26 62.18 62.16 61.48 61.40 62.18 61.55 61.11 60.52 59.82 59.78 60.40 60.85 60.86
57.65 58.73 59.06 59.36 59.37 60.27 59.92 57.64 59.15 60.41 60.64 60.45 61.05 51.82 54.51 59.56 60.82 60.62 60.18 59.88 60.43 60.20
58.83 58.84 58.43 58.95 58.85 58.34 56.26 55.59 55.05 56.47 57.89 57.81 57.78 50.37 51.82 54.72 61.34 61.00 60.32 60.16 60.39 61.13
58.27 57.92 56.92 56.50 56.57 56.68 54.84 54.37 52.96 53.16 53.66 55.57 55.85 49.82 50.73 52.90 61.26 60.43 60.24 60.01 60.10 60.70
57.99 57.45 56.63 55.09 55.65 55.42 54.11 52.97 52.43 51.69 51.27 52.59 52.64 47.45 48.55 55.77 58.92 59.07 58.11 58.72 58.53 58.02
57.37 56.88 56.19 54.93 55.47 55.43 54.14 53.38 52.83 51.48 50.96 48.50 48.01 46.30 48.96 54.91 57.82 55.75 54.65 55.00 56.03 50.58
55.68 55.87 56.38 55.43 55.59 55.69 55.44 54.04 51.97 51.18 49.92 48.98 46.96 44.39 46.20 49.32 55.40 54.79 51.90 52.43 52.83 49.11

GFSNIL_sfc_wetblb_015.txt.gz
Wetbulb
56.66 56.70 56.00 57.17 56.60 56.46 56.36 56.20 56.72 57.69 58.06 57.81 58.88 58.31 57.18 57.36 56.58 58.52 58.54 58.18 57.30 58.81
56.87 56.71 57.96 56.93 56.92 56.92 56.90 58.00 57.71 58.15 57.98 58.82 58.99 58.39 57.74 58.55 58.91 58.97 58.53 57.36 58.25 59.55
57.77 58.49 58.09 57.78 57.00 57.30 57.82 58.42 58.18 57.98 58.01 58.56 58.52 59.05 60.65 60.41 60.89 60.62 60.62 59.07 60.19 60.45
58.22 58.80 57.87 57.38 57.48 57.69 57.82 58.66 58.68 58.72 58.52 58.52 59.03 59.17 59.60 59.35 60.37 60.21 60.53 60.01 60.08 59.79
58.52 58.52 57.15 57.32 57.74 57.95 58.31 58.80 59.28 59.68 59.62 59.39 58.91 58.34 59.17 59.60 60.01 59.94 59.81 59.83 60.15 60.05
57.97 57.71 56.63 57.20 57.84 58.51 59.07 58.98 59.72 59.86 59.40 59.26 58.99 58.91 59.65 59.35 59.41 59.64 59.97 60.69 60.20 60.34
57.31 57.93 57.17 57.71 58.13 58.91 59.61 59.01 58.88 59.42 60.00 59.82 59.76 59.47 59.12 58.68 58.59 59.16 60.20 60.70 60.75 60.86
57.05 58.48 58.74 58.13 58.51 59.10 59.22 59.42 60.09 60.19 59.76 59.74 59.84 60.13 59.10 59.07 58.94 59.18 59.65 60.64 60.94 60.88
57.04 58.62 58.30 57.96 58.39 58.55 56.97 59.03 61.06 59.82 60.95 60.45 61.08 49.04 53.58 58.32 59.79 60.15 59.96 59.71 59.85 59.49
57.55 57.94 58.38 58.14 57.86 56.27 54.59 55.82 58.30 59.27 59.76 59.35 58.29 48.68 49.95 53.94 60.37 60.13 60.07 60.01 60.17 60.97
58.41 57.59 57.67 57.46 56.43 54.14 53.03 53.54 54.84 56.63 57.38 58.43 56.30 48.32 48.50 52.67 60.55 60.03 59.91 60.31 60.87 60.15
58.28 55.91 55.66 55.99 55.10 53.01 52.43 51.61 52.41 53.47 55.64 56.56 55.43 45.78 46.87 56.27 59.83 59.11 59.01 59.78 59.83 60.45
57.57 56.07 54.71 54.71 54.23 52.52 51.79 51.71 51.63 52.22 54.06 52.49 54.61 44.87 46.69 54.69 58.16 56.44 57.12 57.90 56.71 52.30
56.59 56.03 54.91 54.63 54.08 52.76 52.34 51.12 50.24 49.90 49.36 50.96 52.57 51.39 45.78 49.59 57.04 56.28 55.22 55.56 54.26 52.77

GFSNIL_sfc_wetblb_021.txt.gz
Wetbulb
63.50 64.19 64.00 63.64 64.22 63.30 63.78 63.65 64.68 64.56 64.74 64.30 64.54 64.66 64.56 63.76 63.76 64.51 64.96 64.49 64.54 64.66
64.21 64.31 64.52 64.16 64.51 63.92 64.25 63.70 64.47 64.57 64.18 64.81 64.64 63.94 64.99 63.64 63.52 64.28 63.69 61.47 60.96 62.31
64.52 65.29 64.57 64.73 64.12 64.31 64.42 64.33 64.41 64.30 64.49 64.63 64.92 64.59 64.72 63.81 64.45 63.89 63.17 63.17 63.49 63.67
64.77 63.80 63.98 64.73 65.13 64.59 64.98 64.46 64.06 64.00 64.32 64.56 62.47 62.80 63.11 63.39 62.69 61.84 62.42 63.22 62.62 62.82
64.13 63.40 63.84 64.24 64.25 64.81 64.96 64.94 64.05 63.85 63.92 61.59 61.13 61.98 62.06 61.62 61.85 62.35 60.95 61.79 61.91 62.36
63.83 62.86 63.44 64.46 64.73 64.94 64.88 64.65 64.27 63.87 63.40 61.28 61.20 62.10 62.45 62.01 61.71 62.19 62.45 62.18 62.29 62.53
63.76 63.17 63.91 64.76 64.97 65.27 65.00 64.48 64.16 64.27 63.35 61.10 61.36 61.54 61.56 61.91 62.28 62.27 62.26 63.28 64.35 64.03
63.93 63.73 64.08 64.56 64.50 64.89 65.03 64.56 64.39 64.24 63.64 60.86 60.70 60.65 61.45 61.75 62.27 62.38 62.35 62.82 62.61 63.54
63.88 63.26 63.82 64.41 64.24 64.59 64.44 64.23 64.08 63.82 63.66 61.55 59.86 49.91 53.45 58.75 61.51 62.21 62.47 61.23 62.19 61.25
63.25 62.81 63.78 63.54 63.44 64.30 64.46 64.69 64.15 63.27 63.56 60.73 59.52 48.68 50.31 53.88 62.37 62.71 62.18 62.16 62.19 60.46
62.85 62.77 63.29 62.79 61.98 63.44 64.61 64.10 61.90 61.66 61.54 60.79 58.14 46.51 48.32 52.43 62.99 62.50 63.04 63.10 62.38 61.28
63.23 62.46 62.83 61.77 61.29 62.12 62.94 63.25 60.96 61.17 60.40 58.04 54.09 45.78 47.41 56.62 61.54 61.25 62.45 62.75 62.83 63.19
63.31 62.96 62.26 62.46 61.37 61.93 63.13 62.85 63.59 61.63 60.62 54.97 57.20 45.06 47.59 56.46 60.42 59.78 59.99 61.99 61.99 51.74
63.52 63.97 63.72 63.64 62.09 62.27 62.42 63.03 63.08 62.55 61.93 61.24 59.11 53.05 46.14 50.49 61.90 61.49 60.15 60.82 60.45 59.73

GFSNIL_sfc_wetblb_024.txt.gz
Wetbulb
66.90 67.17 66.56 66.18 65.78 66.33 65.56 66.06 66.56 66.21 66.52 66.18 66.31 66.23 66.29 65.57 65.45 66.20 66.48 64.61 64.37 65.00
67.12 67.24 66.79 66.35 66.68 66.04 66.32 65.35 66.02 66.07 66.14 66.41 66.15 66.48 66.54 66.53 65.91 66.40 66.59 65.98 66.20 66.13
67.07 67.32 67.19 66.52 65.68 65.59 65.71 65.72 65.92 65.90 65.98 66.16 66.32 66.17 66.16 65.83 66.18 65.91 64.46 61.82 63.01 65.08
67.03 66.41 66.73 66.12 65.69 65.68 65.86 65.74 65.59 65.46 65.79 65.24 65.91 67.10 66.49 65.67 65.18 64.02 65.16 65.19 64.73 64.71
66.47 66.33 66.59 65.66 66.39 66.47 65.97 65.69 65.42 65.28 65.11 64.89 65.72 66.32 64.17 64.31 64.64 63.58 62.98 63.80 64.02 64.49
65.92 66.53 65.76 65.75 66.13 65.77 65.59 65.58 65.44 65.39 65.23 63.74 65.01 64.19 64.02 63.88 63.33 63.42 64.25 63.59 63.11 64.19
65.60 65.65 65.95 66.36 66.28 65.47 65.85 65.27 65.16 65.17 64.42 63.41 63.08 63.17 62.97 63.38 63.49 63.34 65.08 64.10 64.65 64.19
66.04 66.20 66.31 66.04 66.14 66.18 66.15 65.88 65.43 64.72 63.76 63.39 63.05 62.60 63.10 63.10 63.21 62.72 64.19 65.53 64.67 64.81
65.80 65.67 65.68 65.85 65.90 65.97 65.56 65.74 65.61 65.47 64.60 63.64 62.14 51.27 54.05 59.62 63.77 63.78 64.05 64.64 64.90 64.18
65.36 65.03 65.17 65.63 65.47 65.70 65.68 66.16 65.18 64.57 64.42 62.52 62.96 49.90 50.91 53.32 64.58 64.37 64.43 64.64 62.67 62.17
64.77 65.06 65.28 65.69 65.74 65.88 66.33 65.40 64.35 62.81 63.74 63.18 61.49 48.69 48.89 52.68 64.12 64.54 65.47 64.07 65.68 64.68
64.96 64.96 64.94 64.55 65.97 66.37 65.43 61.26 62.43 62.79 62.26 62.52 60.53 46.17 48.35 55.69 64.27 64.71 64.71 65.48 64.64 64.60
65.14 65.00 64.30 64.34 65.79 66.69 66.68 65.17 63.93 62.54 60.22 55.00 57.67 45.09 47.08 57.50 62.17 61.85 62.45 63.95 64.09 50.97
65.77 65.12 65.54 64.79 66.17 66.73 66.19 65.83 64.49 62.99 63.12 62.81 59.91 54.29 47.08 51.61 61.68 62.24 61.28 62.21 62.22 57.96

GFSNIL_sfc_wetblb_027.txt.gz
Wetbulb
67.95 67.24 67.78 66.79 66.38 66.18 66.73 67.40 67.07 66.44 66.89 66.42 66.40 66.42 66.60 66.80 67.47 67.13 67.03 65.97 65.85 66.61
67.58 67.32 67.51 66.77 67.34 65.77 67.24 65.93 66.41 66.54 66.25 66.42 66.49 66.22 66.68 67.02 66.15 66.52 65.55 65.76 65.81 65.01
66.97 67.40 67.44 67.00 66.49 66.76 67.11 66.47 66.22 66.24 66.38 66.12 66.43 66.45 67.07 67.00 66.44 65.65 63.37 64.72 64.48 64.46
67.32 66.78 67.04 66.98 66.57 66.29 65.95 66.15 65.16 65.88 65.77 65.75 65.86 66.59 66.71 66.01 64.49 64.67 63.44 64.05 63.17 65.10
66.53 66.48 66.93 66.10 66.13 66.52 65.90 65.60 65.17 65.23 65.58 65.20 65.44 66.29 65.23 64.79 65.17 64.27 63.67 64.35 63.64 64.14
65.88 66.51 65.73 65.70 66.64 66.57 65.66 65.16 65.00 65.40 65.13 64.83 65.18 64.27 64.91 64.22 63.96 63.72 64.60 64.58 64.39 64.45
65.90 66.34 65.89 66.43 66.34 66.09 65.60 64.95 64.96 65.49 65.06 64.90 63.99 63.77 63.75 63.81 63.98 64.51 65.36 64.46 65.44 64.37
66.22 66.14 66.29 65.77 66.04 66.03 65.93 65.29 65.35 65.53 65.27 63.77 63.51 62.73 63.55 64.02 64.38 65.23 65.02 65.32 64.67 65.03
65.01 65.43 65.06 65.94 65.74 66.10 65.68 65.20 65.12 65.01 65.02 63.59 63.75 51.56 54.70 59.94 63.71 65.37 64.85 64.59 64.30 64.45
65.45 64.76 64.65 65.31 65.35 65.39 65.59 66.31 65.25 65.11 64.73 64.39 63.16 51.14 52.49 54.12 64.91 65.44 65.20 65.04 64.74 63.93
64.90 65.16 64.70 65.22 65.18 66.15 67.23 66.30 65.81 65.00 65.34 64.13 60.97 51.07 50.76 52.81 65.99 65.15 65.48 65.28 65.01 64.74
64.56 64.52 64.74 65.02 65.63 66.67 64.15 63.87 63.91 64.64 64.20 64.10 61.57 47.86 47.68 54.46 65.39 64.14 65.20 64.42 64.25 64.58
65.54 65.16 65.33 65.98 66.00 67.26 66.88 64.52 63.46 63.83 62.46 56.23 62.66 45.51 46.60 55.03 64.94 63.68 62.91 64.31 61.98 51.93
66.46 66.14 66.04 66.78 67.43 67.23 66.50 65.25 63.83 63.50 62.95 62.75 60.41 56.51 46.05 50.56 64.82 64.30 64.15 62.10 62.08 60.13

GFSNIL_sfc_wetblb_030.txt.gz
Wetbulb
69.31 67.87 68.31 68.39 67.31 66.85 66.72 66.56 67.10 65.98 66.08 66.21 66.02 65.17 65.44 65.02 63.72 63.83 63.68 62.53 62.85 62.87
68.55 68.63 67.77 68.49 68.37 67.14 67.39 66.14 66.42 65.94 66.36 66.47 66.07 65.79 65.42 63.76 63.81 63.86 63.26 63.58 63.17 63.10
67.32 67.39 68.07 68.38 67.15 67.21 67.05 65.16 66.20 66.32 66.12 65.90 65.68 65.72 65.13 64.38 65.77 63.75 62.91 62.50 63.26 63.19
67.22 65.72 67.49 66.51 67.17 67.09 67.06 66.18 64.98 65.22 66.02 65.40 65.05 65.01 64.49 65.00 63.58 62.47 62.30 62.44 61.59 61.84
65.41 65.49 66.44 66.48 66.67 66.80 65.46 65.24 65.26 64.67 65.10 64.53 64.82 65.81 64.70 63.86 64.47 63.67 62.68 62.02 61.70 61.51
65.47 66.32 66.41 66.59 66.55 66.24 65.63 64.51 64.12 64.23 63.92 64.26 64.82 64.33 64.26 64.05 63.59 63.58 63.26 62.30 62.17 61.71
66.30 65.47 66.25 66.73 66.53 67.04 64.43 63.93 63.55 64.60 64.44 64.62 63.87 63.72 63.93 63.75 63.86 63.94 63.52 63.05 63.73 61.84
65.36 66.11 66.09 66.09 66.16 66.82 63.90 64.00 63.65 64.60 64.21 63.88 63.00 62.50 63.95 63.89 63.59 64.00 63.47 63.30 63.69 61.41
64.88 64.97 65.74 65.57 66.25 66.55 65.82 65.17 64.58 64.41 63.39 63.34 61.62 50.96 53.06 58.77 63.85 64.25 63.46 62.96 61.62 60.59
64.85 64.57 64.86 65.22 65.22 65.09 65.30 65.08 64.09 63.78 63.81 61.99 60.94 50.46 50.53 52.74 64.67 63.79 63.84 63.17 63.14 62.56
64.31 64.33 65.07 63.67 65.29 65.54 65.57 64.82 64.73 64.24 62.99 61.82 59.61 51.49 46.24 49.14 64.51 63.87 64.05 63.74 63.72 62.41
64.76 64.54 64.70 64.48 65.35 66.23 65.35 64.26 62.89 63.83 63.10 61.25 59.90 46.24 46.44 56.51 63.91 63.62 63.44 63.85 63.72 62.63
65.20 64.45 65.13 65.13 65.57 66.21 65.85 64.12 63.94 62.48 62.52 57.33 60.30 47.16 47.16 54.10 63.20 62.04 61.00 61.74 60.06 52.61
65.57 65.34 65.99 66.03 66.08 66.04 65.25 63.65 62.16 61.77 61.34 62.69 60.67 57.55 47.52 47.52 63.39 62.86 61.35 60.50 59.27 55.97

GFSNIL_sfc_wetblb_033.txt.gz
Wetbulb
62.33 61.59 62.19 61.72 61.78 61.68 61.23 61.38 61.57 61.45 61.58 62.04 62.27 62.05 61.40 60.87 60.01 60.25 59.42 59.82 59.51 60.06
62.61 62.41 61.97 61.84 61.77 62.06 61.71 61.56 61.65 61.70 61.65 62.04 61.77 61.66 61.21 60.04 60.72 60.55 58.96 59.42 59.17 59.42
62.48 62.85 62.60 61.73 61.07 61.70 61.76 61.43 61.33 62.03 62.23 61.87 61.59 61.78 62.00 60.52 61.26 59.63 59.78 59.41 59.27 59.67
62.57 62.89 62.29 62.04 61.92 61.09 61.01 61.34 61.75 62.92 62.52 61.82 61.93 62.33 60.79 60.08 61.62 60.92 60.19 60.75 59.45 59.49
63.42 62.64 61.85 61.65 61.77 60.33 61.87 60.61 61.35 62.30 62.56 62.63 62.33 61.21 60.58 60.41 61.03 61.29 60.61 59.57 60.00 59.07
61.82 61.79 61.23 61.72 61.54 61.01 60.72 61.12 62.23 62.10 62.46 62.39 62.06 60.83 61.04 61.60 61.05 61.70 61.60 61.37 60.97 60.61
61.09 61.70 61.46 61.90 61.65 61.87 62.44 61.21 62.11 62.06 62.24 61.65 60.80 61.20 60.94 60.87 61.03 61.43 62.11 62.16 61.54 60.86
61.40 62.18 62.16 61.85 61.45 61.95 62.28 61.85 63.20 61.29 60.66 60.46 61.03 60.46 59.96 62.33 61.93 61.61 61.35 61.24 61.15 60.65
61.83 62.58 61.79 61.62 61.26 61.39 62.48 62.92 61.89 60.56 60.07 58.48 58.76 50.44 52.42 57.45 61.31 62.36 61.13 59.39 59.82 59.82
62.61 61.74 61.67 62.10 61.44 60.58 60.27 60.66 60.55 59.51 59.30 57.19 55.47 47.06 47.06 50.69 62.59 62.40 60.96 59.70 59.86 60.27
63.22 61.74 61.94 61.78 60.98 59.87 59.77 59.79 60.15 59.39 58.01 56.95 53.39 46.32 45.79 49.44 61.41 60.81 62.00 60.63 59.82 60.58
62.94 61.03 60.98 60.97 61.22 60.81 61.23 59.65 59.95 59.46 57.13 55.87 53.14 46.52 45.81 56.03 60.81 60.44 60.59 61.10 60.02 60.58
62.29 61.30 61.27 61.16 60.84 60.36 59.84 59.59 60.97 59.83 57.65 54.22 54.65 47.62 45.81 53.06 60.06 58.80 59.52 58.91 57.72 51.41
61.59 62.33 62.06 61.30 61.93 60.86 59.70 60.80 59.05 59.07 58.19 57.75 55.61 53.83 45.99 50.53 60.49 59.20 59.05 58.34 56.41 53.79

GFSNIL_sfc_wetblb_036.txt.gz
Wetbulb
60.67 60.62 60.24 59.55 59.79 60.11 60.07 59.98 60.48 60.36 60.10 60.61 61.01 60.99 60.38 59.43 59.11 59.06 58.59 57.62 57.53 57.43
61.22 60.88 59.77 60.23 60.26 60.22 60.31 60.64 60.27 60.53 60.41 60.84 61.20 61.07 59.86 59.11 59.26 59.28 58.32 58.06 58.02 58.37
61.02 61.36 61.11 60.39 60.25 60.36 59.92 60.21 60.35 60.22 60.58 60.63 60.79 60.81 60.13 59.53 61.06 59.34 58.19 58.80 58.34 58.50
60.78 61.39 61.01 60.20 60.43 60.52 60.03 59.96 60.69 61.63 61.36 60.80 60.91 60.70 59.55 59.09 59.92 57.43 58.28 59.57 59.48 58.92
61.18 60.87 60.40 60.53 60.34 59.41 59.66 60.07 61.11 62.07 61.53 61.65 61.24 59.60 59.80 59.71 60.66 60.65 59.33 59.43 58.36 58.24
61.68 59.82 59.88 60.35 59.98 58.68 59.64 59.24 60.05 60.97 61.34 61.34 60.73 60.13 60.33 61.02 60.64 60.91 60.51 60.07 59.85 59.73
59.74 60.00 60.15 60.49 59.74 59.54 60.30 60.10 61.33 61.11 61.22 60.54 60.02 60.07 59.81 60.41 60.35 61.28 61.06 61.25 61.05 60.74
59.75 60.32 60.67 60.48 60.42 60.54 62.28 62.09 61.96 60.02 59.20 59.17 59.37 58.50 58.75 60.58 60.25 61.33 61.17 60.70 60.86 60.58
60.47 60.86 60.46 60.31 60.09 62.00 61.71 61.96 60.90 59.09 58.87 57.38 57.56 48.85 50.21 56.19 60.90 60.80 59.69 58.72 59.32 59.36
60.97 60.92 60.64 60.69 60.11 60.16 60.22 59.55 58.12 57.67 57.19 55.41 54.33 45.72 46.11 50.85 60.76 59.23 58.09 58.44 60.27 60.09
60.92 60.62 60.82 60.07 59.04 58.40 58.57 58.19 57.87 56.55 55.89 54.57 54.26 45.37 46.13 51.93 60.47 59.38 59.88 59.04 60.70 59.72
60.98 60.30 60.49 60.02 58.30 57.98 58.07 57.55 57.37 56.21 55.27 54.47 53.60 45.04 47.22 55.44 59.62 59.68 59.90 60.50 60.75 60.22
60.89 60.56 59.95 59.35 58.74 58.30 58.20 59.98 59.35 55.91 54.75 52.69 54.06 45.21 47.04 54.96 59.96 59.29 58.40 58.31 57.27 51.55
60.52 60.14 60.26 59.34 58.94 57.99 58.29 58.74 58.55 57.21 54.90 54.81 53.88 52.47 46.68 49.94 59.51 58.69 58.11 57.33 56.57 55.00

GFSNIL_sfc_wetblb_042.txt.gz
Wetbulb
60.33 60.10 59.67 59.92 60.14 60.06 60.37 61.13 61.51 61.76 61.60 61.09 61.05 60.93 60.46 60.42 60.20 59.81 59.58 59.07 59.00 59.18
59.99 60.09 59.82 60.03 60.38 60.19 60.54 60.85 61.40 61.29 61.14 60.88 61.09 61.04 60.72 60.53 60.27 60.41 60.00 59.98 59.74 59.24
59.98 60.31 60.13 60.29 60.29 60.26 60.59 61.43 60.78 60.39 60.42 60.78 61.45 61.59 60.86 60.29 60.38 60.64 59.96 59.44 59.47 59.07
59.97 60.31 60.14 60.10 60.14 60.20 59.82 60.02 60.31 60.64 60.80 61.00 61.24 61.05 60.72 60.45 60.42 60.63 59.41 60.16 59.63 59.43
59.94 59.69 59.34 59.72 60.14 59.90 60.01 60.54 60.70 61.78 61.63 61.43 61.45 61.40 60.73 60.24 60.81 59.94 58.77 58.83 59.23 58.93
59.49 59.36 59.22 59.69 60.23 60.13 59.91 60.30 61.43 61.83 61.45 61.67 61.38 60.63 60.54 60.54 60.75 60.29 59.95 59.09 58.77 59.27
59.41 59.57 59.65 59.83 59.43 59.75 59.99 60.19 60.52 61.33 61.74 61.01 60.58 60.63 60.95 61.07 60.85 60.63 60.32 60.19 60.70 60.76
59.41 59.66 59.97 59.61 59.25 59.87 60.22 60.15 61.06 60.71 60.04 59.77 59.47 57.44 59.36 60.98 60.60 60.31 60.43 60.52 60.78 60.64
59.66 59.80 59.98 59.61 59.24 60.12 60.50 60.74 60.97 59.39 58.93 58.30 55.54 45.97 48.20 56.35 62.09 61.45 59.96 58.83 59.53 59.61
60.36 60.11 59.80 59.89 59.86 60.09 59.99 59.50 58.84 58.40 58.14 57.03 55.78 45.16 46.26 52.06 60.54 60.53 60.22 59.79 59.67 59.97
60.53 60.01 60.01 59.62 59.55 58.74 58.77 58.47 57.98 57.33 57.03 56.91 54.24 45.72 47.71 50.25 59.74 60.20 60.67 60.88 60.17 59.39
60.48 59.96 59.72 58.82 58.45 58.02 57.80 57.58 57.21 56.89 56.61 57.23 56.90 46.08 47.17 55.05 60.82 60.06 59.97 60.56 59.97 59.54
60.60 60.28 59.38 58.57 58.07 58.13 58.33 58.01 57.53 56.18 56.53 52.85 57.86 46.26 47.35 56.21 59.99 59.12 58.28 58.20 57.04 50.97
60.42 60.38 59.73 58.44 58.83 58.40 58.58 57.49 56.38 55.60 55.82 56.80 55.73 53.56 46.26 50.79 60.39 59.47 58.20 57.56 56.09 52.40

GFSNIL_sfc_wetblb_045.txt.gz
Wetbulb
68.35 67.70 67.68 67.63 67.29 66.99 66.88 67.22 68.34 68.03 67.88 67.08 66.57 66.33 66.18 65.23 64.80 65.02 64.49 64.56 64.30 63.56
67.40 67.47 66.76 67.49 67.96 67.06 67.89 67.21 67.59 67.61 67.14 66.64 66.14 65.95 65.96 64.80 64.95 65.40 65.13 62.95 64.74 64.03
66.80 67.10 67.06 67.11 67.00 67.12 67.32 67.21 66.98 66.72 66.64 66.24 65.89 66.13 66.40 65.50 65.64 65.29 64.45 61.72 64.37 64.38
66.29 66.63 67.04 66.94 66.84 67.01 67.05 66.84 66.19 65.76 65.38 65.45 65.84 66.47 66.25 65.65 65.08 64.62 62.93 61.42 63.61 63.67
66.43 66.63 66.61 66.44 66.55 66.41 65.59 65.66 65.37 65.25 65.16 65.40 65.67 65.98 65.48 65.00 64.76 63.79 60.36 60.30 59.89 60.49
65.71 66.11 66.04 65.89 65.75 65.47 65.40 65.23 65.50 65.60 65.44 64.94 65.28 65.02 65.28 64.71 64.07 63.29 61.85 60.37 60.64 60.35
65.40 65.52 65.64 65.80 65.42 65.28 65.36 65.42 65.73 65.82 65.49 65.05 64.70 64.94 65.23 64.81 64.09 62.76 61.42 61.31 60.75 60.68
65.59 65.57 65.48 65.44 65.09 65.26 65.33 65.18 65.58 65.59 65.18 64.78 64.42 62.47 64.64 64.54 62.96 61.77 60.88 61.28 61.48 61.89
64.99 64.85 65.18 64.83 64.89 64.89 64.52 65.12 65.36 64.73 64.09 63.59 61.18 46.53 48.48 57.55 64.78 63.66 61.47 59.77 60.84 60.60
64.68 64.23 64.54 64.40 64.26 64.54 65.30 65.71 64.47 64.02 63.48 62.68 62.57 46.38 46.76 52.20 63.99 62.67 61.70 60.71 60.05 60.34
64.25 63.96 64.21 63.73 63.97 65.05 65.42 64.46 64.03 63.46 63.07 63.08 59.85 46.76 47.85 50.75 63.87 62.65 63.03 61.83 60.78 59.62
64.33 64.00 63.85 63.47 64.22 65.08 64.04 63.76 63.43 63.49 62.63 63.20 60.20 46.58 46.94 56.37 62.57 62.07 61.84 61.69 60.54 60.30
64.62 64.26 63.97 64.31 64.01 64.75 64.77 63.63 62.88 62.47 62.93 54.73 59.98 46.22 48.03 56.97 61.24 60.23 59.42 59.27 58.04 51.66
65.03 65.00 64.95 64.47 64.42 64.23 63.57 62.84 62.59 61.70 62.45 59.66 58.05 55.59 46.40 50.02 62.11 60.74 59.51 57.61 56.49 52.29

GFSNIL_sfc_wetblb_048.txt.gz
Wetbulb
73.51 72.82 72.71 72.96 71.77 70.98 70.55 70.79 71.96 71.27 71.17 70.60 69.74 69.50 69.32 67.40 66.63 67.15 66.38 66.41 65.61 64.39
72.69 72.65 71.68 71.98 71.83 70.07 70.93 70.12 71.30 71.00 70.10 69.49 69.26 68.84 68.36 66.32 66.60 66.64 66.80 66.79 66.53 65.80
71.52 71.52 71.52 71.17 70.01 70.05 70.57 70.36 70.32 70.01 69.09 68.87 68.32 67.92 67.52 66.53 66.93 66.06 66.46 65.74 65.19 65.69
70.14 70.03 70.07 69.65 70.11 70.29 70.48 69.97 69.08 68.54 68.19 67.52 67.35 67.30 67.03 66.75 66.26 66.11 66.13 64.55 62.21 65.20
69.54 69.74 69.78 69.40 69.68 69.86 69.05 68.66 67.92 67.32 66.78 66.56 66.20 67.20 66.76 66.26 65.67 65.75 65.13 62.08 61.66 62.77
68.84 69.13 68.95 69.04 68.88 68.29 67.51 67.16 66.97 66.58 66.26 66.07 66.32 66.68 66.93 66.23 65.77 65.49 65.06 61.97 61.00 61.68
68.14 67.98 67.98 68.11 67.68 67.33 67.20 66.67 66.67 66.95 66.53 66.72 66.51 66.48 66.34 65.86 65.44 63.66 62.33 61.37 60.56 61.00
66.99 67.74 67.86 67.52 67.25 67.43 66.95 66.68 66.92 66.86 66.76 66.75 66.48 65.92 65.93 65.73 65.59 64.71 60.97 61.48 61.19 62.01
66.92 67.24 67.44 67.27 67.22 66.64 66.48 66.95 66.95 66.35 66.31 65.95 65.14 48.29 49.64 57.52 66.07 64.19 61.42 60.37 61.92 62.50
66.64 66.53 66.74 66.61 66.31 65.84 66.53 67.23 66.47 66.55 65.94 65.34 65.26 48.05 48.54 51.31 65.93 64.76 61.81 60.90 61.10 60.68
66.01 65.74 66.10 66.10 65.94 66.17 66.52 66.39 66.57 66.20 65.59 65.54 63.00 48.00 47.81 51.62 65.45 64.76 63.76 61.69 61.39 60.24
65.73 65.59 65.31 65.22 65.65 66.46 66.12 66.38 66.42 66.05 65.35 64.93 62.95 46.73 47.27 54.13 64.98 64.35 63.43 61.90 60.70 60.56
65.51 65.81 65.04 65.81 65.86 66.46 66.62 66.40 65.85 65.12 64.65 57.39 62.53 46.17 47.63 57.32 63.63 63.50 61.73 60.38 58.85 52.17
65.70 66.34 66.63 66.59 66.41 66.28 65.50 65.83 65.35 64.59 63.20 62.53 62.05 58.30 46.55 49.99 64.06 62.78 60.01 59.57 56.48 55.05